Temperature
27 27 27 27 28 28 28 28 27 27 26 26 25 25 25 26 26 26 25 25 24 23 22 21 20 20 19 19 18 18 17 17 17 17 17 17 17 17 17 16 16 16 16 16
26 27 27 27 27 28 28 28 28 27 26 26 26 26 25 26 26 25 25 24 23 22 22 21 21 20 19 19 19 18 18 18 17 17 17 17 17 17 16 16 16 16 16 16
25 26 26 25 27 27 27 28 27 25 25 25 25 25 25 25 25 24 23 23 23 22 21 21 20 20 20 19 19 18 18 18 17 17 17 17 17 17 16 16 16 16 16 16
25 25 23 25 27 27 26 26 26 26 25 25 24 24 24 24 23 23 22 22 22 22 21 21 20 20 20 19 19 18 18 18 18 17 17 17 17 17 17 17 16 16 16 16
24 23 24 25 26 26 25 24 25 24 24 24 23 23 22 22 21 21 21 21 21 21 21 20 20 20 19 19 19 18 18 18 18 17 17 17 17 17 17 16 16 16 16 16
23 22 22 22 25 25 25 23 23 23 23 22 22 22 21 20 20 20 20 20 20 20 20 20 20 20 19 19 19 19 18 18 18 18 17 17 17 17 17 16 16 16 16 16
22 22 22 22 24 25 22 21 21 21 21 21 20 20 19 19 19 19 19 19 19 19 19 19 19 19 19 19 19 19 19 18 18 18 17 17 17 17 17 16 16 16 16 16
22 21 20 21 21 21 20 20 20 20 20 19 19 18 18 17 17 17 17 18 18 18 18 19 19 19 19 19 19 19 18 18 18 18 17 17 17 17 16 16 16 16 16 16
21 20 19 19 18 18 19 19 19 19 18 18 18 17 16 16 16 16 16 16 17 17 17 18 18 18 18 18 18 18 18 18 18 17 17 17 17 16 16 16 15 15 15 15
20 19 19 18 18 18 18 18 18 18 17 17 16 16 15 15 15 15 15 15 15 16 16 16 17 17 17 17 18 18 18 17 17 17 17 16 16 16 16 15 15 15 15 15
19 19 19 18 17 17 17 17 17 16 16 15 15 15 14 14 14 13 14 14 14 14 14 15 15 16 16 16 17 17 17 17 16 16 16 16 16 15 15 15 15 15 15 15
18 18 18 16 16 16 16 15 15 15 15 14 14 13 13 13 13 13 13 13 13 13 13 14 14 15 15 15 16 16 16 16 16 15 15 15 15 15 14 14 14 14 15 15
18 17 16 16 15 15 15 14 14 14 13 13 13 12 12 12 12 12 12 12 12 12 12 13 13 13 14 14 15 15 15 15 15 15 15 14 14 14 14 14 13 13 13 14
17 16 16 15 15 14 14 14 13 13 12 12 12 11 11 11 11 11 11 11 11 12 12 12 12 13 13 13 14 14 14 14 14 14 14 14 14 13 13 13 13 12 12 13
16 16 15 14 14 14 13 13 13 12 12 11 11 11 11 11 11 11 10 10 11 11 11 11 11 12 12 13 13 13 13 14 14 14 13 13 13 13 13 13 12 12 12 12
15 15 15 14 14 13 13 13 12 12 12 11 11 11 11 11 10 10 10 10 10 10 10 10 10 11 12 12 12 12 13 13 13 13 13 13 13 12 12 12 12 12 11 11
14 14 14 14 13 13 13 13 12 12 11 11 11 11 11 10 10 10 10 10 10 9 10 10 10 10 11 11 12 12 12 12 12 12 12 12 12 12 12 12 11 11 11 10
14 14 14 13 13 13 12 12 12 11 11 11 11 11 10 10 10 10 10 10 10 9 9 9 10 10 10 11 11 11 11 11 11 11 11 11 11 11 11 11 11 11 10 10
13 13 13 13 13 12 12 12 11 11 11 11 11 11 10 10 10 10 10 10 9 9 9 9 9 10 10 10 11 11 11 11 11 11 11 11 11 11 10 10 10 10 10 10
13 13 13 12 12 12 12 11 11 11 11 11 11 11 10 10 10 10 10 9 9 9 9 9 9 9 10 10 10 10 10 10 10 10 10 10 10 10 10 10 10 9 9 9
12 12 12 12 11 11 11 11 11 11 11 11 10 10 10 10 10 10 10 9 9 9 9 9 9 9 10 10 10 10 10 10 10 10 10 10 10 9 9 9 9 9 8 8
11 11 11 11 11 11 11 11 11 11 11 10 10 10 10 10 10 10 9 9 9 9 9 9 9 9 9 9 9 9 9 9 9 9 9 9 9 9 8 8 8 8 7 7
10 11 11 11 11 11 11 10 10 10 10 10 10 10 10 10 10 10 9 9 9 9 9 9 9 9 9 9 9 9 9 8 8 8 8 8 8 8 8 7 7 7 7 7
10 10 10 10 10 10 10 10 10 10 10 10 10 10 10 10 10 9 9 9 9 9 8 8 8 8 8 8 8 8 8 8 8 8 7 7 7 7 7 6 6 6 6 6
10 10 10 10 10 10 10 10 10 10 10 10 10 10 10 9 9 9 9 8 8 8 8 8 8 8 8 7 7 7 7 7 7 7 7 6 6 6 6 6 5 5 5 5
10 10 10 10 10 10 10 11 10 10 10 10 10 9 9 9 9 9 8 8 8 8 8 8 8 8 7 7 7 7 7 6 6 6 6 6 6 5 5 5 5 4 4 4
10 10 10 10 10 10 10 10 10 10 10 9 9 9 9 8 8 8 8 8 8 8 7 7 7 7 7 7 6 6 6 6 6 6 5 5 5 5 4 4 4 4 4 4
Wind_Speed
8 7 8 11 12 11 11 11 9 6 4 1 2 2 1 1 2 4 5 7 8 9 8 10 11 11 11 12 12 12 13 12 11 11 10 10 10 10 10 10 11 9 9 9
7 8 8 12 13 12 11 10 8 6 3 1 1 2 1 2 3 3 2 4 6 7 8 9 10 11 11 11 12 12 13 13 12 12 11 11 10 10 10 10 10 10 9 9
9 9 8 11 10 9 7 4 3 2 0 2 2 3 3 2 4 5 5 3 3 5 5 7 8 10 11 11 11 12 12 12 12 12 12 12 13 12 11 11 10 10 10 10
8 7 10 5 2 2 3 1 3 2 4 5 4 5 5 5 5 5 5 5 3 0 3 5 6 8 9 11 12 13 13 12 12 13 13 12 12 12 11 10 10 10 10 10
6 8 7 3 2 2 1 2 6 5 5 4 4 4 6 9 8 6 6 5 4 2 2 3 5 7 8 10 12 13 14 13 13 13 13 12 12 11 10 10 10 10 9 9
6 7 6 1 3 1 2 1 8 7 6 4 4 2 3 8 8 8 7 6 5 4 2 0 2 5 7 9 10 12 12 12 12 11 12 12 11 10 10 9 9 9 9 9
8 7 3 2 4 1 3 2 7 8 7 6 5 4 4 6 6 7 7 7 7 5 3 2 1 2 5 6 7 8 9 10 10 10 10 10 9 8 8 9 9 9 8 8
6 6 2 7 5 3 5 5 5 7 6 5 5 6 6 8 8 8 8 8 8 6 5 3 2 1 3 3 4 5 6 8 9 9 10 10 9 8 8 8 8 8 7 7
2 3 6 9 7 6 6 5 5 4 5 5 6 6 7 8 8 9 8 8 8 7 7 6 5 2 0 1 2 4 5 6 6 8 7 7 8 9 8 7 8 8 8 8
5 6 8 9 7 8 7 6 6 6 5 6 6 6 8 8 8 9 9 9 8 8 7 8 7 5 3 2 1 3 5 6 6 6 6 5 5 6 6 6 7 7 6 6
4 6 6 7 8 7 7 8 10 10 9 8 8 8 8 8 9 9 9 9 8 9 9 9 9 8 7 4 2 3 4 5 6 6 6 5 5 3 4 3 2 4 4 4
2 4 4 5 6 7 8 8 9 10 10 10 10 9 9 9 10 10 10 10 10 10 11 10 10 10 9 7 5 4 4 4 5 5 6 6 7 7 11 8 10 9 7 5
5 7 7 7 7 8 9 9 9 9 10 10 10 9 9 9 9 10 10 11 11 10 10 10 10 10 10 9 7 7 6 5 5 5 6 6 6 6 6 7 11 11 10 10
8 8 7 7 7 7 8 9 10 11 11 10 9 8 9 9 10 10 10 11 11 12 12 11 11 11 10 8 8 7 6 6 6 6 6 6 6 5 5 6 5 4 6 8
7 6 7 8 8 8 8 9 10 10 10 9 8 8 10 11 11 11 11 11 12 13 13 13 13 12 10 9 9 9 7 5 5 6 6 5 5 5 5 6 5 5 5 4
6 7 8 9 9 8 9 10 10 9 9 9 9 9 10 10 10 11 11 12 13 14 13 12 12 11 10 10 9 8 8 10 8 6 6 6 5 5 5 5 5 5 5 4
5 6 7 8 8 8 8 9 10 10 10 10 10 10 10 10 10 11 12 12 12 12 12 12 12 11 11 11 9 7 7 7 8 7 7 6 6 5 5 6 6 6 5 5
5 6 7 8 9 9 9 10 10 10 10 10 10 9 9 10 11 11 10 10 11 12 12 11 11 11 11 12 9 7 7 7 7 7 6 6 6 5 6 6 6 6 4 4
7 9 9 10 10 10 10 11 10 9 9 8 9 9 10 10 10 10 10 10 11 11 10 9 10 10 10 11 10 6 7 8 7 6 6 7 6 6 6 5 5 5 4 4
9 11 11 12 12 11 10 10 10 9 8 9 9 10 9 9 9 9 9 10 9 7 6 8 8 9 9 9 9 6 7 8 7 7 6 6 6 6 6 6 6 6 6 5
11 11 12 12 11 11 10 10 10 10 9 9 9 9 8 7 8 7 7 9 8 7 7 8 7 8 8 8 7 7 8 8 8 7 7 6 6 7 7 7 6 6 6 6
10 10 12 12 11 11 10 9 9 9 8 8 8 8 7 7 8 9 9 8 7 8 7 7 8 9 11 9 7 8 8 8 8 8 8 8 7 7 7 7 7 7 6 6
9 9 10 10 10 10 10 9 8 7 7 7 7 6 6 6 6 7 7 7 7 7 7 7 8 11 12 7 7 8 8 8 8 7 7 7 7 7 7 7 6 6 6 5
8 8 8 8 8 9 9 8 7 6 6 6 7 7 6 6 7 7 7 8 8 7 6 7 8 9 7 6 7 8 8 8 8 8 8 7 8 8 7 7 7 6 6 7
7 7 8 8 7 6 7 7 7 5 5 6 7 7 6 6 6 6 5 6 6 5 5 5 5 6 6 7 8 8 8 8 8 8 8 8 8 7 7 7 7 6 6 7
7 6 6 5 5 4 4 5 5 4 5 5 5 5 5 5 5 4 4 5 6 5 5 5 5 5 6 7 7 7 6 6 7 7 8 7 8 7 7 7 7 6 6 6
7 6 4 5 5 4 4 4 5 5 6 5 5 5 5 5 5 5 5 4 4 5 5 5 5 5 6 6 6 6 6 6 6 7 7 7 7 6 6 6 6 6 6 6
Wind_Direction
232 221 244 258 253 242 247 253 261 274 279 16 75 73 4 341 74 113 140 151 153 157 167 169 169 171 178 179 178 177 177 182 180 180 178 176 176 174 173 175 183 179 179 185
250 236 239 256 256 244 245 255 258 256 274 142 117 94 10 6 47 56 98 135 147 158 170 177 177 179 183 182 178 176 179 183 178 179 179 179 177 177 177 181 185 181 183 190
251 244 246 245 256 262 260 270 295 280 7 92 63 53 34 37 40 39 24 51 119 154 169 181 185 184 184 183 179 179 183 183 179 180 181 182 185 183 184 186 188 186 188 195
255 251 242 242 239 237 260 322 30 55 67 49 42 30 17 29 44 34 20 18 20 70 178 182 188 191 190 186 184 185 187 186 183 185 186 185 188 187 187 187 191 192 194 197
252 251 244 231 242 199 171 41 33 35 59 33 12 38 35 31 24 14 15 7 349 317 235 189 192 193 194 193 191 191 192 191 188 188 188 188 192 190 188 189 193 195 195 198
240 250 250 293 346 34 107 122 35 40 49 31 3 352 34 28 13 5 8 358 344 333 335 300 208 195 193 196 194 197 195 191 187 187 190 193 193 190 190 191 194 197 199 198
242 248 236 352 322 310 215 92 30 33 27 22 23 17 13 21 16 9 7 356 347 347 358 3 334 190 191 196 199 200 195 189 186 186 187 186 186 186 184 189 192 199 201 199
237 244 228 15 8 37 75 69 44 37 32 29 43 33 26 20 14 11 5 359 358 5 11 16 16 124 185 201 198 187 184 181 181 179 190 190 180 181 182 186 192 201 206 209
79 92 81 66 65 64 66 65 53 43 38 40 45 34 30 28 22 16 10 10 12 18 19 17 16 32 191 235 190 174 171 167 165 171 182 176 173 178 182 186 197 204 207 212
101 105 90 78 69 57 53 54 45 47 52 59 57 50 43 36 30 26 22 22 23 29 31 22 14 20 21 9 120 147 158 161 158 160 165 159 159 174 182 190 198 203 202 199
118 117 97 72 65 63 57 52 53 55 60 66 69 60 54 45 40 38 35 34 35 39 37 28 20 22 21 23 67 123 133 137 141 141 137 123 106 88 137 115 153 174 180 170
114 109 103 92 74 70 73 70 64 58 59 61 62 61 58 54 50 47 44 41 43 43 41 34 30 28 25 28 54 90 109 120 136 135 127 125 117 94 64 71 69 74 82 104
86 93 99 100 88 81 84 83 81 77 73 71 66 65 64 63 56 52 49 47 47 48 45 41 37 36 31 31 51 74 89 99 108 114 119 122 125 124 109 75 66 67 72 83
89 99 101 98 97 92 90 88 86 84 80 78 74 71 72 71 63 55 51 53 54 54 50 46 44 38 31 37 50 64 80 88 98 105 110 116 121 127 130 129 119 94 72 81
77 91 110 108 103 100 98 97 93 88 88 83 78 75 74 73 68 63 58 60 59 55 50 47 45 37 30 40 53 58 62 71 89 98 102 106 112 113 113 117 120 125 115 87
88 98 109 112 108 105 104 104 102 97 93 88 83 80 78 78 75 71 65 61 60 56 48 45 44 34 31 40 51 61 63 61 67 78 82 82 87 96 101 103 103 98 102 105
103 109 113 114 113 111 108 105 106 105 102 95 92 91 87 83 78 72 69 66 63 57 49 43 40 35 33 35 37 51 58 61 65 68 71 74 73 75 80 82 84 85 87 86
107 122 125 123 123 119 114 110 107 107 106 107 107 101 93 87 82 78 74 70 65 58 48 42 36 36 36 33 27 38 50 59 61 66 71 73 75 79 82 84 90 95 99 100
111 119 115 113 113 111 113 113 112 111 110 109 103 95 90 88 85 82 77 69 62 56 42 36 33 41 41 32 24 38 46 57 63 65 69 73 72 71 73 77 81 82 81 81
107 110 107 104 103 105 108 111 112 109 104 99 94 90 87 85 84 80 78 73 61 53 45 39 40 42 35 24 17 39 51 55 59 64 66 69 70 70 69 69 72 74 72 66
105 106 106 104 103 103 102 101 102 102 98 95 92 91 90 88 87 84 77 77 61 38 40 51 42 31 25 8 13 41 47 50 50 51 55 58 61 61 60 59 58 59 57 53
105 106 106 106 106 104 100 98 96 94 92 90 89 89 89 86 85 82 73 67 62 38 39 46 41 25 7 7 38 45 45 47 49 48 48 49 51 53 54 54 54 54 51 47
101 102 101 102 104 105 101 98 96 95 93 89 85 81 76 70 72 79 77 66 60 47 51 45 27 13 5 30 43 48 49 47 46 48 51 51 51 50 50 52 53 51 47 40
103 103 104 105 105 103 100 96 91 90 96 96 87 78 75 75 74 74 79 81 61 51 59 48 22 10 17 47 48 47 48 47 46 45 46 47 49 49 45 40 39 40 40 38
109 108 107 106 102 104 112 115 114 109 100 90 86 80 73 73 74 75 75 79 78 64 65 57 28 18 45 52 50 50 47 43 43 45 49 47 45 43 42 39 38 36 35 33
106 101 99 101 103 110 113 105 100 96 87 84 82 79 76 80 85 84 79 77 70 57 53 57 56 56 59 56 52 50 50 50 46 47 49 48 48 46 41 38 39 36 34 30
108 106 105 95 85 80 83 85 87 84 79 73 70 70 68 67 68 71 68 66 66 59 52 50 53 62 64 61 57 51 46 46 48 47 48 48 45 40 36 34 32 32 28 29
Height
1411 1414 1417 1418 1416 1414 1418 1419 1426 1427 1429 1429 1429 1429 1431 1431 1431 1433 1435 1438 1441 1445 1449 1452 1456 1459 1462 1465 1468 1471 1474 1478 1481 1485 1488 1492 1495 1499 1503 1506 1510 1513 1516 1519
1416 1412 1414 1418 1414 1412 1414 1415 1419 1422 1428 1426 1427 1430 1431 1432 1433 1434 1436 1438 1441 1444 1447 1451 1454 1457 1460 1463 1466 1469 1472 1475 1479 1483 1486 1490 1493 1497 1500 1504 1507 1510 1513 1516
1422 1414 1417 1425 1416 1413 1413 1413 1419 1427 1429 1426 1429 1430 1432 1434 1435 1436 1438 1439 1442 1444 1446 1449 1452 1455 1457 1460 1463 1466 1470 1474 1477 1480 1484 1487 1491 1494 1498 1501 1505 1508 1510 1513
1420 1424 1439 1422 1409 1411 1416 1417 1418 1422 1425 1427 1431 1433 1435 1436 1437 1438 1439 1440 1442 1443 1445 1447 1450 1453 1456 1458 1461 1464 1467 1471 1474 1477 1481 1484 1488 1491 1494 1498 1501 1504 1507 1510
1424 1429 1427 1419 1414 1415 1421 1425 1423 1426 1428 1432 1433 1434 1437 1439 1439 1440 1440 1441 1441 1442 1443 1445 1447 1450 1452 1455 1458 1461 1464 1467 1471 1474 1478 1481 1484 1487 1490 1494 1497 1500 1503 1506
1425 1434 1438 1430 1418 1416 1422 1432 1430 1430 1433 1435 1435 1438 1442 1442 1441 1441 1441 1441 1441 1441 1442 1443 1444 1447 1449 1451 1454 1457 1460 1463 1467 1471 1474 1477 1480 1483 1487 1490 1493 1496 1499 1501
1426 1432 1430 1426 1422 1420 1435 1441 1436 1435 1437 1438 1440 1442 1444 1443 1442 1442 1441 1441 1440 1440 1440 1440 1442 1444 1445 1448 1450 1453 1457 1460 1464 1467 1470 1473 1477 1480 1483 1486 1490 1492 1495 1497
1426 1434 1440 1429 1427 1433 1438 1438 1438 1439 1440 1441 1442 1442 1443 1443 1443 1442 1441 1440 1438 1438 1438 1439 1439 1441 1442 1444 1447 1450 1453 1456 1460 1463 1466 1469 1473 1476 1479 1482 1485 1488 1491 1493
1426 1435 1435 1433 1436 1438 1438 1439 1440 1441 1441 1442 1443 1443 1443 1443 1442 1441 1441 1439 1438 1438 1438 1438 1438 1439 1440 1442 1445 1447 1450 1453 1456 1459 1463 1466 1468 1472 1475 1478 1481 1483 1486 1488
1428 1432 1434 1437 1438 1439 1440 1441 1441 1441 1442 1443 1444 1444 1444 1443 1442 1441 1441 1439 1438 1438 1437 1437 1438 1438 1439 1440 1442 1445 1447 1450 1453 1456 1459 1462 1466 1468 1471 1474 1476 1479 1481 1483
1430 1433 1436 1439 1441 1442 1443 1443 1442 1443 1444 1445 1445 1445 1445 1444 1443 1442 1442 1441 1440 1439 1438 1438 1438 1438 1438 1439 1441 1443 1445 1448 1450 1453 1457 1459 1462 1465 1468 1470 1472 1475 1478 1480
1432 1434 1437 1442 1443 1444 1444 1445 1445 1446 1446 1447 1447 1448 1447 1447 1446 1445 1444 1443 1442 1441 1440 1440 1439 1439 1439 1439 1440 1441 1444 1446 1449 1452 1455 1457 1460 1463 1466 1468 1470 1473 1475 1477
1434 1436 1439 1443 1444 1446 1446 1447 1448 1449 1449 1450 1450 1450 1450 1449 1449 1448 1447 1447 1446 1445 1444 1443 1442 1441 1441 1441 1441 1442 1444 1446 1448 1451 1453 1456 1459 1462 1464 1466 1468 1470 1472 1475
1436 1438 1442 1444 1446 1447 1448 1450 1450 1451 1452 1453 1453 1453 1453 1452 1452 1451 1451 1451 1450 1448 1447 1446 1446 1445 1445 1444 1444 1444 1446 1447 1448 1450 1453 1456 1458 1461 1463 1465 1467 1469 1471 1473
1440 1441 1444 1446 1447 1449 1451 1452 1453 1454 1455 1456 1456 1456 1456 1456 1456 1456 1455 1454 1453 1452 1451 1450 1449 1448 1448 1447 1447 1448 1448 1449 1451 1453 1455 1457 1459 1461 1464 1465 1467 1468 1470 1473
1443 1445 1446 1448 1450 1452 1453 1455 1456 1457 1458 1459 1459 1460 1460 1460 1460 1460 1460 1459 1458 1457 1456 1455 1453 1452 1451 1451 1451 1451 1452 1453 1453 1455 1457 1459 1461 1463 1464 1466 1468 1469 1470 1472
1445 1447 1449 1451 1453 1454 1456 1457 1459 1460 1461 1462 1463 1464 1464 1465 1464 1464 1464 1464 1463 1462 1462 1460 1459 1458 1457 1456 1455 1455 1456 1456 1457 1458 1460 1461 1463 1465 1466 1468 1469 1470 1472 1473
1448 1449 1450 1452 1454 1456 1458 1460 1462 1463 1465 1466 1467 1468 1468 1468 1468 1469 1469 1468 1467 1467 1466 1465 1464 1463 1462 1461 1460 1460 1460 1461 1461 1462 1464 1465 1466 1467 1468 1470 1471 1472 1474 1475
1449 1451 1453 1454 1456 1458 1460 1462 1464 1466 1468 1469 1470 1471 1472 1472 1473 1473 1473 1473 1472 1471 1471 1471 1470 1468 1467 1466 1466 1466 1465 1465 1466 1466 1467 1468 1469 1470 1471 1472 1473 1474 1475 1476
1451 1453 1455 1457 1459 1460 1463 1465 1467 1469 1471 1472 1473 1474 1475 1476 1476 1477 1477 1477 1477 1477 1476 1475 1474 1473 1472 1471 1470 1470 1470 1470 1470 1470 1470 1471 1472 1473 1473 1474 1475 1475 1476 1477
1454 1456 1458 1460 1462 1464 1466 1468 1470 1472 1474 1475 1476 1477 1478 1479 1480 1480 1480 1480 1481 1480 1480 1479 1478 1477 1476 1476 1475 1475 1474 1474 1474 1474 1474 1474 1475 1475 1475 1476 1476 1477 1477 1478
1457 1459 1461 1463 1465 1467 1469 1471 1473 1475 1476 1478 1479 1480 1481 1482 1483 1483 1483 1483 1483 1483 1482 1481 1481 1480 1479 1479 1479 1478 1478 1478 1477 1477 1477 1477 1477 1477 1477 1477 1478 1478 1479 1479
1460 1462 1465 1466 1468 1471 1473 1475 1476 1478 1480 1481 1482 1483 1484 1485 1486 1486 1486 1486 1486 1485 1485 1484 1483 1483 1482 1482 1481 1481 1481 1480 1480 1480 1480 1480 1479 1480 1480 1480 1480 1480 1480 1480
1464 1466 1468 1470 1472 1474 1476 1478 1480 1481 1483 1484 1485 1486 1487 1487 1488 1488 1488 1488 1488 1488 1487 1487 1486 1485 1485 1485 1484 1483 1483 1483 1483 1482 1482 1482 1482 1482 1482 1481 1481 1481 1480 1480
1468 1470 1472 1473 1475 1477 1479 1481 1482 1484 1486 1487 1487 1488 1489 1489 1490 1490 1490 1490 1490 1490 1490 1489 1488 1487 1487 1487 1486 1486 1485 1485 1484 1484 1484 1484 1483 1483 1483 1483 1482 1482 1481 1480
1472 1474 1475 1477 1478 1480 1482 1483 1485 1486 1488 1489 1489 1490 1491 1491 1492 1492 1492 1492 1492 1492 1491 1491 1490 1489 1489 1489 1488 1488 1488 1487 1487 1486 1486 1485 1485 1485 1484 1484 1483 1482 1481 1480
1475 1477 1478 1480 1481 1483 1484 1485 1486 1488 1489 1490 1491 1492 1492 1493 1493 1494 1494 1494 1493 1493 1493 1493 1492 1492 1491 1490 1490 1489 1489 1489 1488 1488 1487 1487 1486 1486 1485 1484 1483 1482 1481 1480